This is the latest recevied weather packets stored in our database for station/object OK2ILA-3. If no packets are shown the sender has not sent any weather packets the latest 10 day(s).
| Time | Temp. | Humidity | Pressure | Rain* | Wind** | Luminosity | Snow |
|---|---|---|---|---|---|---|---|
| 1778014395 | 14.44° C | 25% | 2534.6 hPa | 0 mm | - | - | - |
| 1778013790 | 14.44° C | 51% | 2534.6 hPa | 0 mm | - | - | - |
| 1778013186 | 14.44° C | 100% | 0 hPa | 0 mm | - | - | - |
| 1778012579 | 15° C | - | - | 116.84 mm | - | - | - |
| 1778011974 | 15° C | 12% | 0 hPa | 0 mm | - | - | - |
| 1778011369 | 15° C | 3% | 59.7 hPa | 0 mm | - | - | - |
| 1778010762 | 15° C | 2% | 60.3 hPa | 0 mm | - | - | - |
| 1778010158 | 15.56° C | 2% | 60.3 hPa | 0 mm | - | - | - |
| 1778009554 | 15.56° C | 66% | 823 hPa | 0 mm | - | - | - |
| 1778008946 | 16.11° C | 100% | 823 hPa | 0 mm | - | - | - |
| 1778008344 | 16.67° C | 2% | 823 hPa | 0 mm | - | - | - |
| 1778007736 | 16.67° C | 12% | 4352 hPa | 0 mm | - | - | - |
| 1778007129 | 16.67° C | 28% | 4352 hPa | 0 mm | - | - | - |
| 1778006524 | 17.22° C | 8% | 12.3 hPa | 0 mm | - | - | - |
| 1778005918 | 17.22° C | 12% | 4096.7 hPa | 0 mm | - | - | - |
| 1778005311 | 17.78° C | 98% | 4480 hPa | 0 mm | - | - | - |
| 1778004707 | 17.78° C | 62% | 4480 hPa | 0 mm | - | - | - |
| 1778004103 | 18.33° C | 61% | 4480 hPa | 0 mm | - | - | - |
| 1778003496 | 18.89° C | 100% | 4480 hPa | 0 mm | - | - | - |
| 1778002892 | 18.89° C | 98% | 4480 hPa | 0 mm | - | - | - |
| 1778002287 | 19.44° C | 98% | 4480 hPa | 0 mm | - | - | - |
| 1778001683 | 20° C | 59% | 4480 hPa | 0 mm | - | - | - |
| 1778001079 | 20° C | 79% | 4480 hPa | 0 mm | - | - | - |
| 1778000475 | 20° C | 2% | 4480 hPa | 0 mm | - | - | - |
| 1777999867 | 20° C | 2% | 147.2 hPa | 0 mm | - | - | - |
* Rain latest 24 hours (hover to see other rain measurements)
** Current wind speed in m/s (hover to see current wind gust speed)